Location: Parc National du Mont-Orford
(45.3122°N, 72.2403°W)
Time: 16:49:10
(UTC-05:00)

OTV 5 (USA 277) - Visible Passes

Search period start: 23 January 2018 00:00
Search period end: 02 February 2018 00:00
Orbit: 404 x 417 km, 43.0° (Epoch: 07 September)

Date Brightness Start Highest point End Pass type
(mag) Time Alt. Az. Time Alt. Az. Time Alt. Az.
23 Jan ? 17:53:32 10° S 17:55:16 13° SSE 17:56:29 12° SE visible
23 Jan ? 19:28:52 10° SW 19:29:15 13° SW 19:29:15 13° SW visible
24 Jan ? 18:38:01 10° SW 18:40:43 31° S 18:40:43 31° S visible
25 Jan ? 17:47:18 10° SSW 17:50:06 25° SSE 17:52:08 15° ESE visible
25 Jan ? 19:23:47 10° WSW 19:24:54 19° WSW 19:24:54 19° WSW visible
26 Jan ? 18:32:48 10° WSW 18:36:04 48° S 18:36:18 47° SSE visible
27 Jan ? 17:41:53 10° SW 17:45:04 40° SSE 17:47:40 14° E visible
27 Jan ? 19:18:52 10° W 19:20:26 25° WSW 19:20:26 25° WSW visible
28 Jan ? 18:27:50 10° WSW 18:31:09 58° S 18:31:49 46° SE visible
29 Jan ? 17:36:49 10° WSW 17:40:07 55° S 17:43:12 11° E visible
29 Jan ? 19:14:00 10° W 19:15:58 29° WSW 19:15:58 29° WSW visible
30 Jan ? 18:22:55 10° W 18:26:15 54° S 18:27:23 34° SE visible
31 Jan ? 17:31:53 10° W 17:35:12 58° S 17:38:32 10° ESE visible
31 Jan ? 19:09:14 10° W 19:11:38 29° SW 19:11:38 29° SW visible
01 Feb ? 18:18:06 10° W 18:21:17 39° SSW 18:23:11 20° SE visible
